When you browse on this site, cookies collect data to enhance your experience and personalize the content and advertising you see.
Visit our Privacy Policy to learn more. By continuing to use the site, you agree to this use of cookies and data.
  • In Hungary
  • List of Countries
  • For 7 days
  • Water Temperature
  • Satellite Maps
  • Weather Map
  • News
  • Weather Widgets
  • user-avatar
    Login

    Hourly Weather Nowogrodziec

    Today, 19 November, Monday

    Time Temperature Precipitation Wind Pressure Humidity
    00:00 +1°C° 0.2 mm 2 mps 748 mmHg 84%
    01:00 +1°C° 0.2 mm 2 mps 748 mmHg 89%
    02:00 +1°C° 0.2 mm 2 mps 748 mmHg 90%
    03:00 0°C° 0.2 mm 3 mps 747 mmHg 91%
    04:00 0°C° 0.2 mm 3 mps 747 mmHg 91%
    05:00 0°C° 0.1 mm 3 mps 747 mmHg 91%
    06:00 -1°C° 0.1 mm 4 mps 747 mmHg 91%
    07:00 0°C° 0.1 mm 4 mps 747 mmHg 91%
    08:00 0°C° 0.1 mm 5 mps 747 mmHg 87%
    09:00 0°C° 0.1 mm 5 mps 747 mmHg 83%
    10:00 +1°C° 0.1 mm 5 mps 747 mmHg 79%
    11:00 +1°C° 0.1 mm 6 mps 747 mmHg 78%
    12:00 +1°C° 0.1 mm 6 mps 747 mmHg 77%
    13:00 +1°C° 0.1 mm 6 mps 747 mmHg 75%
    14:00 0°C° 0 mm 5 mps 747 mmHg 76%
    15:00 0°C° 0 mm 5 mps 747 mmHg 76%
    16:00 -1°C° 0 mm 5 mps 747 mmHg 76%
    17:00 -1°C° 0 mm 5 mps 747 mmHg 77%
    18:00 -1°C° 0 mm 5 mps 747 mmHg 77%
    19:00 -2°C° 0 mm 6 mps 747 mmHg 78%
    20:00 -2°C° 0 mm 5 mps 747 mmHg 78%
    21:00 -2°C° 0 mm 5 mps 747 mmHg 78%
    22:00 -2°C° 0 mm 5 mps 747 mmHg 78%
    23:00 -4°C° 0 mm 5 mps 747 mmHg 78%

    Tomorrow, 20 November, Tuesday

    Time Temperature Precipitation Wind Pressure Humidity
    00:00 -4°C° 0 mm 5 mps 747 mmHg 78%
    01:00 -4°C° 0 mm 5 mps 746 mmHg 78%
    02:00 -4°C° 0 mm 5 mps 746 mmHg 78%
    03:00 -4°C° 0 mm 5 mps 746 mmHg 78%
    04:00 -4°C° 0 mm 6 mps 745 mmHg 78%
    05:00 -4°C° 0 mm 5 mps 745 mmHg 78%
    06:00 -4°C° 0 mm 5 mps 745 mmHg 79%
    07:00 -4°C° 0 mm 5 mps 745 mmHg 80%
    08:00 -4°C° 0 mm 6 mps 745 mmHg 78%
    09:00 -3°C° 0 mm 6 mps 744 mmHg 76%
    10:00 -3°C° 0 mm 6 mps 744 mmHg 74%
    11:00 -2°C° 0.1 mm 6 mps 743 mmHg 74%
    12:00 -2°C° 0.1 mm 6 mps 743 mmHg 74%
    13:00 -2°C° 0.1 mm 6 mps 743 mmHg 74%
    14:00 -2°C° 0.3 mm 6 mps 742 mmHg 75%
    15:00 -2°C° 0.3 mm 6 mps 742 mmHg 76%
    16:00 -1°C° 0.3 mm 5 mps 742 mmHg 77%
    17:00 -1°C° 0.4 mm 5 mps 742 mmHg 78%
    18:00 -1°C° 0.4 mm 5 mps 743 mmHg 80%
    19:00 -1°C° 0.4 mm 4 mps 743 mmHg 81%
    20:00 -1°C° 0.1 mm 4 mps 743 mmHg 83%
    21:00 -1°C° 0.1 mm 4 mps 743 mmHg 85%
    22:00 -1°C° 0.1 mm 3 mps 744 mmHg 87%
    23:00 -1°C° 0 mm 3 mps 744 mmHg 87%

    Day after tomorrow, 21 November, Wednesday

    Time Temperature Precipitation Wind Pressure Humidity
    00:00 -1°C° 0 mm 3 mps 744 mmHg 88%
    01:00 -1°C° 0 mm 2 mps 744 mmHg 89%
    02:00 -1°C° 0 mm 2 mps 744 mmHg 89%
    03:00 -1°C° 0 mm 2 mps 744 mmHg 90%
    04:00 -1°C° 0 mm 2 mps 745 mmHg 90%
    05:00 -1°C° 0 mm 2 mps 745 mmHg 91%
    06:00 -1°C° 0 mm 3 mps 745 mmHg 92%
    07:00 -1°C° 0 mm 3 mps 745 mmHg 92%
    08:00 -1°C° 0 mm 3 mps 746 mmHg 90%
    09:00 0°C° 0 mm 3 mps 746 mmHg 88%
    10:00 0°C° 0 mm 4 mps 747 mmHg 86%
    11:00 0°C° 0 mm 4 mps 747 mmHg 85%
    12:00 +1°C° 0 mm 4 mps 746 mmHg 84%
    13:00 +1°C° 0 mm 4 mps 746 mmHg 84%
    14:00 +1°C° 0 mm 4 mps 747 mmHg 85%
    15:00 0°C° 0 mm 4 mps 747 mmHg 86%
    16:00 0°C° 0 mm 4 mps 747 mmHg 87%
    17:00 0°C° 0 mm 4 mps 747 mmHg 87%
    18:00 -1°C° 0 mm 4 mps 747 mmHg 87%
    19:00 -1°C° 0 mm 4 mps 747 mmHg 87%
    20:00 -1°C° 0 mm 4 mps 748 mmHg 87%
    21:00 -1°C° 0 mm 4 mps 748 mmHg 87%
    22:00 -1°C° 0 mm 4 mps 748 mmHg 88%
    23:00 -1°C° 0 mm 4 mps 748 mmHg 88%

    22 November, Thursday

    Time Temperature Precipitation Wind Pressure Humidity
    00:00 -1°C° 0 mm 4 mps 748 mmHg 88%
    01:00 -1°C° 0 mm 4 mps 748 mmHg 88%
    02:00 -2°C° 0 mm 4 mps 748 mmHg 88%
    03:00 -2°C° 0 mm 4 mps 748 mmHg 89%
    04:00 -2°C° 0 mm 4 mps 748 mmHg 89%
    05:00 -1°C° 0 mm 3 mps 749 mmHg 89%
    06:00 -1°C° 0 mm 3 mps 749 mmHg 89%
    07:00 -1°C° 0 mm 3 mps 749 mmHg 89%
    08:00 -1°C° 0 mm 3 mps 749 mmHg 87%
    09:00 0°C° 0 mm 3 mps 750 mmHg 85%
    10:00 +1°C° 0 mm 3 mps 750 mmHg 83%
    11:00 +1°C° 0 mm 3 mps 750 mmHg 82%
    12:00 +2°C° 0 mm 3 mps 750 mmHg 81%
    13:00 +2°C° 0 mm 3 mps 750 mmHg 81%
    14:00 +2°C° 0 mm 3 mps 750 mmHg 83%
    15:00 +1°C° 0 mm 3 mps 750 mmHg 85%
    16:00 +2°C° 0 mm 2 mps 750 mmHg 88%
    17:00 +2°C° 0 mm 2 mps 751 mmHg 88%
    18:00 +2°C° 0 mm 2 mps 751 mmHg 89%
    19:00 +2°C° 0 mm 2 mps 751 mmHg 89%
    20:00 +2°C° 0 mm 2 mps 751 mmHg 89%
    21:00 +2°C° 0 mm 2 mps 751 mmHg 90%
    22:00 +2°C° 0 mm 2 mps 752 mmHg 90%
    23:00 +2°C° 0 mm 2 mps 752 mmHg 91%

    23 November, Friday

    Time Temperature Precipitation Wind Pressure Humidity
    00:00 +2°C° 0 mm 2 mps 752 mmHg 91%
    01:00 +2°C° 0 mm 2 mps 752 mmHg 92%
    02:00 +3°C° 0 mm 1 mps 752 mmHg 92%
    03:00 +2°C° 0 mm 1 mps 752 mmHg 93%
    04:00 +2°C° 0 mm 1 mps 752 mmHg 93%
    05:00 +2°C° 0 mm 1 mps 752 mmHg 93%
    06:00 +2°C° 0 mm 1 mps 752 mmHg 93%
    07:00 +1°C° 0 mm 2 mps 752 mmHg 93%
    08:00 +2°C° 0 mm 2 mps 752 mmHg 91%
    09:00 +3°C° 0 mm 2 mps 752 mmHg 88%
    10:00 +5°C° 0 mm 2 mps 753 mmHg 85%
    11:00 +5°C° 0 mm 2 mps 752 mmHg 83%
    12:00 +6°C° 0 mm 2 mps 752 mmHg 81%
    13:00 +7°C° 0 mm 2 mps 752 mmHg 79%
    14:00 +6°C° 0 mm 2 mps 752 mmHg 83%
    15:00 +5°C° 0 mm 2 mps 751 mmHg 87%
    16:00 +4°C° 0 mm 2 mps 751 mmHg 91%
    17:00 +4°C° 0 mm 2 mps 751 mmHg 91%
    18:00 +4°C° 0 mm 2 mps 751 mmHg 92%
    19:00 +4°C° 0 mm 2 mps 750 mmHg 92%
    20:00 +3°C° 0 mm 2 mps 750 mmHg 92%
    21:00 +3°C° 0 mm 2 mps 750 mmHg 92%
    22:00 +3°C° 0 mm 2 mps 750 mmHg 92%
    23:00 +3°C° 0 mm 2 mps 750 mmHg 92%

    24 November, Saturday

    Time Temperature Precipitation Wind Pressure Humidity
    00:00 +3°C° 0 mm 2 mps 749 mmHg 92%
    01:00 +3°C° 0 mm 2 mps 749 mmHg 92%
    02:00 +3°C° 0 mm 2 mps 749 mmHg 92%
    03:00 +3°C° 0 mm 2 mps 748 mmHg 92%
    04:00 +3°C° 0 mm 2 mps 748 mmHg 92%
    05:00 +3°C° 0 mm 2 mps 748 mmHg 92%
    06:00 +3°C° 0 mm 2 mps 748 mmHg 92%
    07:00 +3°C° 0 mm 2 mps 747 mmHg 91%
    08:00 +4°C° 0 mm 2 mps 747 mmHg 88%
    09:00 +5°C° 0 mm 2 mps 747 mmHg 85%
    10:00 +5°C° 0 mm 2 mps 747 mmHg 82%
    11:00 +7°C° 0 mm 1 mps 747 mmHg 81%
    12:00 +7°C° 0 mm 1 mps 747 mmHg 79%
    13:00 +8°C° 0 mm 1 mps 746 mmHg 77%
    14:00 +7°C° 0 mm 1 mps 746 mmHg 81%
    15:00 +6°C° 0 mm 1 mps 746 mmHg 84%
    16:00 +6°C° 0 mm 1 mps 746 mmHg 88%
    17:00 +5°C° 0 mm 1 mps 746 mmHg 89%
    18:00 +5°C° 0 mm 1 mps 746 mmHg 90%
    19:00 +5°C° 0 mm 1 mps 746 mmHg 91%
    20:00 +5°C° 0.2 mm 1 mps 746 mmHg 91%
    21:00 +5°C° 0.2 mm 1 mps 746 mmHg 92%
    22:00 +5°C° 0.2 mm 1 mps 746 mmHg 92%
    23:00 +5°C° 0.2 mm 1 mps 746 mmHg 93%
    Show more